�������l�o���
Date,Time,MP-1(��Sv/h),MP-2(��Sv/h),MP-3(��Sv/h),MP-4(��Sv/h),MP-5(��Sv/h),MP-6(��Sv/h),MP-7(��Sv/h),MP-8(��Sv/h),����,����(m/s),���J
2023/03/04,00:00,0.571,0.834,0.508,1.063,0.740,0.324,0.586,0.556,���쐼,4.3,��
2023/03/04,00:10,0.572,0.836,0.506,1.063,0.740,0.324,0.586,0.556,��,4.9,��
2023/03/04,00:20,0.571,0.835,0.506,1.062,0.741,0.326,0.585,0.556,��,5.4,��
2023/03/04,00:30,0.572,0.834,0.507,1.065,0.739,0.324,0.584,0.556,���쐼,5.4,��
2023/03/04,00:40,0.572,0.836,0.508,1.063,0.740,0.325,0.586,0.555,���쐼,5.5,��
2023/03/04,00:50,0.570,0.836,0.509,1.061,0.740,0.324,0.586,0.557,���쐼,6.4,��
2023/03/04,01:00,0.573,0.835,0.507,1.063,0.740,0.322,0.586,0.558,��,6.8,��
2023/03/04,01:10,0.572,0.835,0.506,1.062,0.740,0.324,0.585,0.557,���쐼,6.7,��
2023/03/04,01:20,0.572,0.833,0.508,1.062,0.739,0.325,0.584,0.557,��,6.6,��
2023/03/04,01:30,0.572,0.836,0.507,1.062,0.740,0.324,0.584,0.556,���쐼,6.8,��
2023/03/04,01:40,0.571,0.833,0.506,1.062,0.740,0.325,0.586,0.557,���쐼,6.4,��
2023/03/04,01:50,0.572,0.835,0.508,1.062,0.739,0.325,0.585,0.556,���쐼,5.2,��
2023/03/04,02:00,0.571,0.834,0.506,1.063,0.740,0.323,0.586,0.556,���쐼,4.0,��
2023/03/04,02:10,0.573,0.834,0.507,1.064,0.740,0.324,0.583,0.556,���쐼,3.4,��
2023/03/04,02:20,0.571,0.834,0.507,1.061,0.740,0.324,0.585,0.556,���쐼,3.2,��
2023/03/04,02:30,0.572,0.836,0.507,1.062,0.740,0.326,0.585,0.556,�쐼,3.0,��
2023/03/04,02:40,0.572,0.834,0.507,1.062,0.741,0.325,0.585,0.556,���쐼,3.3,��
2023/03/04,02:50,0.572,0.835,0.506,1.063,0.739,0.325,0.585,0.556,���쐼,3.6,��
2023/03/04,03:00,0.572,0.834,0.506,1.062,0.739,0.325,0.586,0.557,�쐼,2.6,��
2023/03/04,03:10,0.572,0.834,0.506,1.063,0.739,0.324,0.585,0.556,���쐼,3.2,��
2023/03/04,03:20,0.573,0.834,0.505,1.063,0.739,0.325,0.586,0.556,�쐼,2.6,��
2023/03/04,03:30,0.573,0.835,0.507,1.061,0.740,0.325,0.585,0.556,��쐼,1.7,��
2023/03/04,03:40,0.573,0.833,0.506,1.064,0.740,0.324,0.585,0.557,-,CALM,��
2023/03/04,03:50,0.572,0.837,0.508,1.063,0.738,0.324,0.584,0.557,��,1.9,��
2023/03/04,04:00,0.573,0.834,0.507,1.062,0.739,0.325,0.584,0.557,��,1.5,��
2023/03/04,04:10,0.571,0.834,0.508,1.062,0.737,0.324,0.585,0.558,��쐼,1.5,��
2023/03/04,04:20,0.570,0.836,0.506,1.063,0.739,0.325,0.586,0.556,���쐼,3.5,��
2023/03/04,04:30,0.571,0.834,0.505,1.063,0.736,0.324,0.584,0.556,���쐼,6.8,��
2023/03/04,04:40,0.572,0.834,0.506,1.063,0.739,0.324,0.585,0.556,���쐼,8.0,��
2023/03/04,04:50,0.570,0.833,0.505,1.061,0.739,0.324,0.585,0.556,���쐼,7.5,��
2023/03/04,05:00,0.572,0.834,0.508,1.062,0.740,0.325,0.585,0.556,���쐼,7.2,��
2023/03/04,05:10,0.572,0.835,0.507,1.064,0.739,0.325,0.586,0.555,���쐼,7.9,��
2023/03/04,05:20,0.572,0.833,0.507,1.061,0.740,0.325,0.585,0.558,���쐼,7.7,��
2023/03/04,05:30,0.573,0.835,0.506,1.062,0.740,0.325,0.584,0.556,���쐼,7.9,��
2023/03/04,05:40,0.572,0.834,0.508,1.063,0.738,0.324,0.585,0.556,���쐼,7.3,��
2023/03/04,05:50,0.571,0.833,0.506,1.064,0.739,0.325,0.586,0.555,���쐼,7.7,��
2023/03/04,06:00,0.572,0.832,0.507,1.063,0.740,0.325,0.587,0.556,�쐼,8.6,��
2023/03/04,06:10,0.572,0.834,0.506,1.064,0.741,0.324,0.584,0.557,�쐼,8.5,��
2023/03/04,06:20,0.573,0.832,0.506,1.064,0.739,0.326,0.587,0.556,���쐼,9.5,��
2023/03/04,06:30,0.571,0.834,0.508,1.064,0.738,0.324,0.587,0.558,�쐼,10.0,��
2023/03/04,06:40,0.573,0.834,0.508,1.064,0.740,0.326,0.585,0.557,���쐼,9.9,��
2023/03/04,06:50,0.572,0.833,0.506,1.065,0.740,0.324,0.587,0.556,���쐼,10.2,��
2023/03/04,07:00,0.573,0.836,0.507,1.063,0.740,0.324,0.587,0.557,�쐼,10.2,��
2023/03/04,07:10,0.572,0.835,0.507,1.063,0.740,0.325,0.587,0.557,�쐼,10.2,��
2023/03/04,07:20,0.574,0.838,0.507,1.063,0.742,0.324,0.586,0.557,�쐼,9.4,��
2023/03/04,07:30,0.573,0.836,0.508,1.064,0.740,0.325,0.587,0.556,���쐼,8.8,��
2023/03/04,07:40,0.574,0.837,0.507,1.064,0.740,0.325,0.588,0.557,���쐼,7.5,��
2023/03/04,07:50,0.573,0.836,0.506,1.064,0.741,0.326,0.588,0.557,���쐼,5.4,��
2023/03/04,08:00,0.573,0.836,0.506,1.064,0.739,0.326,0.589,0.558,���쐼,5.6,��
2023/03/04,08:10,0.575,0.835,0.508,1.063,0.740,0.326,0.589,0.556,��,9.0,��
2023/03/04,08:20,0.574,0.836,0.506,1.064,0.742,0.324,0.589,0.558,���쐼,7.6,��
2023/03/04,08:30,0.574,0.835,0.508,1.066,0.739,0.326,0.589,0.558,��,7.6,��
2023/03/04,08:40,0.573,0.833,0.508,1.063,0.739,0.327,0.586,0.557,��,8.2,��
2023/03/04,08:50,0.574,0.834,0.506,1.064,0.740,0.325,0.587,0.558,��,7.8,��
2023/03/04,09:00,0.574,0.834,0.508,1.067,0.740,0.325,0.587,0.558,��,9.1,��
2023/03/04,09:10,0.571,0.835,0.506,1.064,0.741,0.324,0.587,0.558,��,6.5,��
2023/03/04,09:20,0.575,0.834,0.506,1.065,0.741,0.326,0.587,0.558,���k��,5.8,��
2023/03/04,09:30,0.574,0.832,0.507,1.066,0.741,0.326,0.586,0.557,��,6.6,��
2023/03/04,09:40,0.575,0.834,0.508,1.064,0.741,0.325,0.587,0.559,��,7.3,��
2023/03/04,09:50,0.575,0.832,0.509,1.064,0.740,0.324,0.585,0.559,���k��,9.1,��
2023/03/04,10:00,0.575,0.835,0.508,1.067,0.738,0.326,0.587,0.558,��,6.4,��
2023/03/04,10:10,0.576,0.835,0.507,1.064,0.741,0.325,0.586,0.558,���k��,6.9,��
2023/03/04,10:20,0.575,0.835,0.507,1.065,0.743,0.326,0.588,0.558,���k��,9.2,��
2023/03/04,10:30,0.574,0.835,0.509,1.063,0.741,0.325,0.587,0.558,��,9.0,��
2023/03/04,10:40,0.574,0.837,0.508,1.065,0.743,0.325,0.588,0.557,��,7.1,��
2023/03/04,10:50,0.573,0.837,0.509,1.066,0.741,0.325,0.587,0.558,��,5.8,��
2023/03/04,11:00,0.574,0.836,0.507,1.065,0.741,0.325,0.588,0.558,��,6.4,��
2023/03/04,11:10,0.575,0.837,0.507,1.065,0.742,0.324,0.587,0.557,���쐼,5.6,��
2023/03/04,11:20,0.574,0.835,0.507,1.066,0.741,0.325,0.588,0.558,��,6.1,��
2023/03/04,11:30,0.573,0.837,0.508,1.066,0.742,0.325,0.587,0.558,���쐼,7.2,��
2023/03/04,11:40,0.573,0.836,0.508,1.066,0.740,0.324,0.586,0.557,���쐼,6.5,��
2023/03/04,11:50,0.573,0.835,0.507,1.066,0.739,0.324,0.587,0.559,��,6.5,��
2023/03/04,12:00,0.574,0.837,0.506,1.067,0.742,0.323,0.586,0.558,��,7.3,��
2023/03/04,12:10,0.575,0.837,0.509,1.066,0.741,0.325,0.586,0.558,��,6.4,��
2023/03/04,12:20,0.575,0.838,0.507,1.068,0.741,0.323,0.587,0.558,��,5.3,��
2023/03/04,12:30,0.575,0.836,0.508,1.066,0.739,0.324,0.587,0.557,��,5.7,��
2023/03/04,12:40,0.575,0.836,0.508,1.068,0.739,0.324,0.586,0.558,���k��,4.8,��
2023/03/04,12:50,0.576,0.835,0.507,1.066,0.740,0.326,0.586,0.557,���k��,4.7,��
2023/03/04,13:00,0.574,0.836,0.508,1.066,0.740,0.326,0.586,0.558,�k��,4.5,��
2023/03/04,13:10,0.575,0.837,0.509,1.067,0.742,0.326,0.586,0.557,�k�k��,5.3,��
2023/03/04,13:20,0.573,0.835,0.508,1.066,0.742,0.327,0.586,0.558,�k��,6.0,��
2023/03/04,13:30,0.573,0.835,0.508,1.068,0.740,0.327,0.586,0.557,�k��,4.4,��
2023/03/04,13:40,0.572,0.835,0.508,1.068,0.740,0.327,0.586,0.558,�k�k��,3.8,��
2023/03/04,13:50,0.574,0.836,0.509,1.066,0.741,0.326,0.586,0.558,�k�k��,4.5,��
2023/03/04,14:00,0.576,0.835,0.509,1.065,0.740,0.327,0.588,0.559,�k�k��,3.0,��
2023/03/04,14:10,0.576,0.837,0.508,1.067,0.742,0.327,0.588,0.559,�k��,4.0,��
2023/03/04,14:20,0.576,0.837,0.510,1.065,0.744,0.327,0.587,0.559,�k�k��,4.1,��
2023/03/04,14:30,0.576,0.836,0.507,1.067,0.743,0.326,0.585,0.559,�k�k��,5.5,��
2023/03/04,14:40,0.577,0.838,0.509,1.069,0.741,0.325,0.587,0.561,�k�k��,4.1,��
2023/03/04,14:50,0.576,0.838,0.510,1.068,0.742,0.326,0.588,0.560,�k�k��,3.3,��
2023/03/04,15:00,0.576,0.839,0.508,1.070,0.742,0.326,0.585,0.559,�k�k��,3.5,��
2023/03/04,15:10,0.576,0.839,0.509,1.065,0.742,0.325,0.588,0.558,�k,4.2,��
2023/03/04,15:20,0.576,0.839,0.510,1.066,0.740,0.325,0.587,0.560,�k��,3.7,��
2023/03/04,15:30,0.578,0.841,0.508,1.067,0.743,0.327,0.585,0.559,��,5.2,��
2023/03/04,15:40,0.575,0.838,0.509,1.067,0.741,0.326,0.586,0.557,���쐼,7.1,��
2023/03/04,15:50,0.574,0.839,0.510,1.066,0.739,0.326,0.588,0.558,���k��,7.9,��
2023/03/04,16:00,0.576,0.838,0.507,1.066,0.740,0.325,0.587,0.558,���k��,6.4,��
2023/03/04,16:10,0.576,0.838,0.510,1.067,0.741,0.326,0.588,0.558,��,5.2,��
2023/03/04,16:20,0.576,0.839,0.510,1.067,0.741,0.326,0.587,0.557,��,4.1,��
2023/03/04,16:30,0.578,0.837,0.507,1.066,0.740,0.326,0.588,0.557,��,5.7,��
2023/03/04,16:40,0.576,0.838,0.509,1.067,0.739,0.326,0.587,0.557,��,5.1,��
2023/03/04,16:50,0.576,0.838,0.508,1.067,0.740,0.328,0.588,0.557,��,5.3,��
2023/03/04,17:00,0.577,0.841,0.508,1.066,0.739,0.326,0.587,0.558,��,6.3,��
2023/03/04,17:10,0.575,0.839,0.509,1.067,0.740,0.327,0.586,0.560,���k��,6.7,��
2023/03/04,17:20,0.577,0.837,0.508,1.067,0.741,0.325,0.586,0.558,��,6.8,��
2023/03/04,17:30,0.573,0.838,0.509,1.066,0.741,0.325,0.587,0.559,��,6.4,��
2023/03/04,17:40,0.574,0.838,0.509,1.065,0.741,0.326,0.588,0.558,��,6.1,��
2023/03/04,17:50,0.576,0.839,0.509,1.066,0.743,0.325,0.587,0.559,��,5.6,��
2023/03/04,18:00,0.574,0.838,0.507,1.067,0.743,0.326,0.586,0.560,���k��,5.6,��
2023/03/04,18:10,0.575,0.838,0.507,1.067,0.743,0.326,0.588,0.557,�k��,4.2,��
2023/03/04,18:20,0.575,0.837,0.508,1.065,0.741,0.324,0.587,0.558,�k��,3.7,��
2023/03/04,18:30,0.576,0.838,0.507,1.068,0.741,0.324,0.587,0.557,�k��,4.3,��
2023/03/04,18:40,0.573,0.835,0.507,1.065,0.743,0.325,0.589,0.559,�k��,4.4,��
2023/03/04,18:50,0.573,0.837,0.508,1.063,0.743,0.324,0.588,0.558,�k��,5.4,��
2023/03/04,19:00,0.574,0.838,0.507,1.067,0.741,0.325,0.588,0.558,�k��,6.1,��
2023/03/04,19:10,0.572,0.836,0.507,1.065,0.741,0.325,0.588,0.558,���k��,6.5,��
2023/03/04,19:20,0.574,0.837,0.506,1.066,0.741,0.325,0.589,0.558,�k��,7.3,��
2023/03/04,19:30,0.573,0.836,0.507,1.066,0.741,0.326,0.588,0.556,���k��,5.0,��
2023/03/04,19:40,0.575,0.837,0.505,1.065,0.742,0.324,0.586,0.557,���k��,5.0,��
2023/03/04,19:50,0.575,0.835,0.507,1.067,0.742,0.325,0.588,0.557,���k��,6.5,��
2023/03/04,20:00,0.575,0.837,0.507,1.066,0.742,0.326,0.589,0.557,���k��,5.8,��
2023/03/04,20:10,0.573,0.837,0.507,1.065,0.743,0.325,0.588,0.557,���k��,5.8,��
2023/03/04,20:20,0.572,0.836,0.507,1.064,0.743,0.325,0.588,0.556,���k��,6.0,��
2023/03/04,20:30,0.573,0.836,0.507,1.065,0.741,0.326,0.588,0.559,���k��,6.7,��
2023/03/04,20:40,0.573,0.838,0.507,1.065,0.742,0.324,0.588,0.557,�k��,5.7,��
2023/03/04,20:50,0.573,0.837,0.507,1.066,0.740,0.323,0.586,0.557,�k��,5.9,��
2023/03/04,21:00,0.573,0.838,0.506,1.064,0.740,0.324,0.588,0.558,�k��,6.0,��
2023/03/04,21:10,0.573,0.837,0.508,1.064,0.742,0.324,0.587,0.557,�k��,5.6,��
2023/03/04,21:20,0.573,0.837,0.506,1.067,0.740,0.324,0.587,0.558,�k�k��,4.5,��
2023/03/04,21:30,0.573,0.836,0.506,1.067,0.741,0.325,0.587,0.558,�k�k��,5.4,��
2023/03/04,21:40,0.572,0.836,0.506,1.066,0.741,0.325,0.587,0.557,�k��,4.6,��
2023/03/04,21:50,0.572,0.836,0.507,1.066,0.742,0.323,0.587,0.556,�k�k��,6.2,��
2023/03/04,22:00,0.572,0.836,0.505,1.066,0.740,0.323,0.586,0.556,�k��,6.3,��
2023/03/04,22:10,0.571,0.836,0.505,1.063,0.742,0.324,0.586,0.558,�k�k��,5.7,��
2023/03/04,22:20,0.572,0.836,0.506,1.066,0.741,0.325,0.586,0.556,�k�k��,5.3,��
2023/03/04,22:30,0.571,0.834,0.505,1.063,0.739,0.325,0.585,0.557,�k�k��,5.7,��
2023/03/04,22:40,0.572,0.834,0.504,1.066,0.742,0.324,0.585,0.554,�k��,6.5,��
2023/03/04,22:50,0.571,0.835,0.506,1.064,0.741,0.325,0.586,0.557,�k�k��,5.5,��
2023/03/04,23:00,0.572,0.836,0.505,1.066,0.741,0.325,0.587,0.557,�k�k��,5.8,��
2023/03/04,23:10,0.572,0.834,0.506,1.066,0.742,0.323,0.585,0.558,�k��,5.6,��
2023/03/04,23:20,0.572,0.835,0.507,1.063,0.743,0.324,0.585,0.555,�k�k��,5.6,��
2023/03/04,23:30,0.571,0.836,0.505,1.064,0.740,0.324,0.585,0.557,�k�k��,6.6,��
2023/03/04,23:40,0.571,0.837,0.506,1.063,0.741,0.323,0.586,0.557,�k�k��,7.5,��
2023/03/04,23:50,0.572,0.838,0.505,1.064,0.741,0.325,0.586,0.555,�k�k��,8.0,��
